NC4TP Weather Reports


Display with metric or nautical units.
time (UTC)temp
F
wind
direction
speed
MPH
gust
MPH
rain 1hr
in
rain 24hr
in
rain mn
in
humidity
%
barometer
mb
20260507060355 43 244 0.0 0.0 0.00 0.16 0.00 90 1014.4
20260507055854 43 244 0.0 0.0 0.00 0.35 0.00 90 1014.5
20260507055355 43 244 0.0 0.0 0.00 0.35 0.00 90 1014.4
20260507054836 43 244 0.0 0.0 0.00 0.35 0.00 90 1014.4
20260507054358 43 244 0.0 0.0 0.00 0.35 0.00 90 1014.5
20260507053841 43 244 0.0 0.0 0.00 0.35 0.00 90 1014.5
20260507053359 43 244 0.0 0.0 0.00 0.35 0.00 90 1014.5
20260507052839 44 244 0.0 0.0 0.00 0.35 0.00 90 1014.5
20260507052340 44 244 0.0 0.0 0.00 0.35 0.00 90 1014.4
20260507051844 44 244 0.0 0.0 0.00 0.35 0.00 90 1014.5
20260507051344 44 244 0.0 0.0 0.00 0.35 0.00 90 1014.5
20260507050846 44 244 0.0 0.0 0.00 0.35 0.00 90 1014.6
20260507050348 44 244 0.0 0.0 0.00 0.35 0.00 90 1014.6
20260507045849 44 244 0.0 0.0 0.00 0.50 0.00 90 1014.7
20260507045349 45 244 0.0 0.0 0.00 0.50 0.00 90 1014.7
20260507044850 45 244 0.0 0.0 0.00 0.50 0.00 90 1014.7
20260507044354 45 244 0.0 0.0 0.00 0.50 0.00 90 1014.7
20260507043915 45 244 0.0 0.0 0.00 0.50 0.00 90 1014.6
20260507043335 45 244 0.0 0.0 0.00 0.50 0.00 90 1014.5
20260507042851 45 244 0.0 0.0 0.00 0.50 0.00 90 1014.4
20260507042353 45 244 0.0 0.0 0.00 0.50 0.00 90 1014.4
20260507041854 45 244 0.0 0.0 0.00 0.50 0.00 90 1014.5
20260507041334 45 244 0.0 0.0 0.00 0.50 0.00 90 1014.5
20260507040836 46 244 0.0 0.0 0.00 0.50 0.00 89 1014.5
20260507040338 46 244 0.0 0.0 0.00 0.50 0.00 89 1014.5
20260507035837 46 244 0.0 0.0 0.00 0.55 0.50 89 1014.4
20260507035340 46 244 0.0 0.0 0.00 0.55 0.50 89 1014.4
20260507034843 46 244 0.0 0.0 0.00 0.55 0.50 88 1014.4
20260507034346 46 244 0.0 0.0 0.00 0.55 0.50 88 1014.5
20260507033847 46 244 0.0 0.0 0.00 0.55 0.50 88 1014.5
20260507033408 46 244 0.0 0.0 0.00 0.55 0.50 87 1014.4
20260507032841 47 244 0.0 0.0 0.00 0.55 0.50 87 1014.4
20260507032343 47 244 0.0 0.0 0.00 0.55 0.50 87 1014.4
20260507031846 47 244 0.0 0.0 0.00 0.55 0.50 87 1014.4
20260507031347 47 244 0.0 0.0 0.00 0.55 0.50 87 1014.5
20260507030848 47 244 0.0 0.0 0.00 0.55 0.50 86 1014.5
20260507030350 47 244 0.0 0.0 0.00 0.55 0.50 86 1014.5
20260507025849 48 244 0.0 0.0 0.00 0.62 0.50 86 1014.6
20260507025350 48 244 0.0 0.0 0.00 0.62 0.50 86 1014.6
20260507024851 48 244 0.0 0.0 0.00 0.62 0.50 86 1014.6
20260507024355 48 244 0.0 0.0 0.00 0.62 0.50 85 1014.6
20260507023915 48 244 0.0 0.0 0.00 0.62 0.50 85 1014.5
20260507023334 49 244 0.0 0.0 0.00 0.62 0.50 85 1014.5
20260507022851 49 244 0.0 0.0 0.00 0.62 0.50 85 1014.6
20260507022350 49 244 0.0 0.0 0.00 0.62 0.50 85 1014.5
20260507021852 49 244 0.0 0.0 0.00 0.62 0.50 84 1014.5
20260507021354 49 244 0.0 0.0 0.00 0.62 0.50 84 1014.5
20260507020852 50 244 0.0 0.0 0.00 0.62 0.50 84 1014.3
20260507020355 50 244 0.0 0.0 0.00 0.62 0.50 83 1014.2
20260507015913 50 244 0.0 0.0 0.00 0.73 0.50 83 1014.2
20260507015354 50 244 0.0 0.0 0.00 0.73 0.50 83 1014.2
20260507014851 50 244 0.0 0.0 0.00 0.73 0.50 83 1014.1
20260507014353 50 244 0.0 0.0 0.00 0.73 0.50 82 1014.0
20260507013914 51 244 0.0 0.0 0.00 0.73 0.50 82 1014.0
20260507013347 51 244 0.0 0.0 0.00 0.73 0.50 81 1013.9
20260507012907 51 244 0.0 0.0 0.00 0.73 0.50 81 1013.9
20260507012347 52 244 0.0 0.0 0.00 0.73 0.50 81 1013.9
20260507011848 52 244 0.0 0.0 0.00 0.73 0.50 80 1013.7
20260507011351 52 244 0.0 0.0 0.00 0.73 0.50 80 1013.9
20260507010850 52 244 0.0 0.0 0.00 0.73 0.50 79 1013.8
20260507010411 53 244 0.0 0.0 0.00 0.73 0.50 79 1013.8
20260507005848 53 244 0.0 0.0 0.00 0.80 0.50 80 1013.8
20260507005350 54 244 0.0 0.0 0.00 0.80 0.50 79 1013.8
20260507004852 54 244 0.0 0.0 0.00 0.80 0.50 79 1013.9
20260507004410 54 244 0.0 0.0 0.00 0.80 0.50 78 1013.7
20260507003850 55 244 0.0 0.0 0.00 0.80 0.50 77 1013.8
20260507003412 55 244 0.0 0.0 0.00 0.80 0.50 76 1013.7
20260507002852 55 244 0.0 0.0 0.00 0.80 0.50 75 1013.5
20260507002334 56 244 0.0 0.0 0.00 0.80 0.50 75 1013.5
20260507001836 56 244 0.0 0.0 0.00 0.80 0.50 73 1013.5
20260507001358 56 244 0.0 0.0 0.00 0.80 0.50 73 1013.3
20260507000837 57 244 0.0 0.0 0.00 0.80 0.50 72 1013.2
20260507000340 57 244 0.0 0.0 0.00 0.80 0.50 71 1013.2
20260506235838 57 244 0.0 0.0 0.00 0.84 0.50 73 1013.2
20260506235342 57 244 0.0 0.0 0.00 0.84 0.50 69 1013.1
20260506234838 58 244 0.0 0.0 0.00 0.84 0.50 74 1013.2
20260506234342 58 244 0.0 0.0 0.00 0.84 0.50 73 1013.2
20260506233903 58 244 0.0 0.0 0.00 0.84 0.50 72 1013.2
20260506233344 58 244 0.0 0.0 0.00 0.84 0.50 68 1013.1
20260506232843 58 244 0.0 0.0 0.00 0.84 0.50 64 1013.1
20260506232407 59 244 0.0 0.0 0.00 0.84 0.50 68 1013.0
20260506231850 59 244 0.0 0.0 0.00 0.84 0.50 63 1012.9
20260506231413 59 244 0.0 0.0 0.00 0.84 0.50 64 1012.9
20260506230855 59 244 0.0 0.0 0.00 0.84 0.50 63 1013.0
20260506230335 59 244 0.0 1.0 0.00 0.84 0.50 66 1013.0
20260506225851 58 253 0.0 1.0 0.00 0.86 0.50 67 1013.1
20260506225352 58 186 0.0 0.0 0.00 0.86 0.50 65 1013.1
20260506224836 58 269 0.0 0.0 0.00 0.86 0.50 66 1013.0
20260506224338 58 269 0.0 0.0 0.00 0.86 0.50 65 1013.1
20260506223842 58 269 0.0 0.0 0.00 0.86 0.50 68 1013.2
20260506223404 58 269 0.0 0.0 0.00 0.86 0.50 67 1013.3
20260506222840 58 269 0.0 0.0 0.00 0.86 0.50 66 1013.2
20260506222404 59 269 0.0 0.0 0.00 0.86 0.50 66 1013.4
20260506221906 59 269 0.0 0.0 0.00 0.86 0.50 66 1013.3
20260506221347 59 269 0.0 0.0 0.00 0.86 0.50 61 1013.3
20260506220849 59 269 0.0 1.0 0.00 0.86 0.50 60 1013.3
20260506220346 59 274 0.0 1.0 0.00 0.86 0.50 60 1013.5
20260506215846 59 314 0.0 0.0 0.00 0.90 0.50 61 1013.4
20260506215407 59 314 0.0 0.0 0.00 0.90 0.50 65 1013.4
20260506214847 59 322 0.0 0.0 0.00 0.90 0.50 61 1013.3
20260506214349 59 181 0.0 0.0 0.00 0.90 0.50 63 1013.3
20260506213851 60 181 0.0 0.0 0.00 0.90 0.50 66 1013.2
20260506213351 59 250 0.0 0.0 0.00 0.90 0.50 58 1013.2
20260506212849 60 261 0.0 0.0 0.00 0.90 0.50 60 1013.2
20260506212351 59 355 0.0 0.0 0.00 0.90 0.50 62 1013.2
20260506211853 59 346 0.0 0.0 0.00 0.90 0.50 60 1013.1
20260506211355 59 346 0.0 0.0 0.00 0.90 0.50 57 1012.9
20260506210836 59 346 0.0 0.0 0.00 0.90 0.50 59 1013.0
20260506210339 59 346 0.0 0.0 0.00 0.90 0.50 61 1012.9
20260506205854 59 346 0.0 0.0 0.00 0.94 0.50 61 1012.8
20260506205335 59 346 0.0 0.0 0.00 0.94 0.50 58 1012.9
20260506204858 59 346 0.0 0.0 0.00 0.94 0.50 60 1012.9
20260506204339 60 346 0.0 0.0 0.00 0.94 0.50 63 1012.9
20260506203840 60 346 0.0 0.0 0.00 0.94 0.50 60 1012.9
20260506203342 60 346 0.0 0.0 0.00 0.94 0.50 59 1012.9
20260506202842 60 346 0.0 0.0 0.00 0.94 0.50 56 1013.0
20260506202342 60 346 0.0 0.0 0.00 0.94 0.50 57 1013.0
20260506201843 60 346 0.0 0.0 0.00 0.94 0.50 58 1012.9
20260506201344 60 346 0.0 0.0 0.00 0.94 0.50 58 1012.9
20260506200846 60 346 0.0 1.0 0.00 0.94 0.50 58 1013.0
20260506200348 61 346 0.0 0.0 0.00 0.94 0.50 56 1013.0
20260506195843 61 346 0.0 0.0 0.00 1.06 0.50 60 1013.0
20260506195344 61 347 0.0 0.0 0.00 1.06 0.50 58 1013.0
20260506194845 61 347 0.0 0.0 0.00 1.06 0.50 52 1012.8
20260506194346 62 347 0.0 0.0 0.00 1.06 0.50 54 1012.8
20260506193848 62 355 0.0 0.0 0.00 1.06 0.50 52 1012.9
20260506193350 62 268 0.0 0.0 0.00 1.06 0.50 58 1012.8
20260506192908 62 244 0.0 0.0 0.00 1.06 0.50 54 1012.7
20260506192350 62 275 0.0 0.0 0.00 1.06 0.50 55 1012.5
20260506191851 62 281 0.0 1.0 0.00 1.06 0.50 56 1012.5
20260506191352 62 336 0.0 1.0 0.00 1.06 0.50 55 1012.5
20260506190853 62 293 0.0 0.0 0.00 1.06 0.50 58 1012.7
20260506190352 62 11 0.0 0.0 0.00 1.06 0.50 56 1012.7
20260506185851 62 324 0.0 0.0 0.00 1.06 0.50 56 1012.6
20260506185352 62 324 0.0 0.0 0.00 1.06 0.50 53 1012.7
20260506184853 62 325 0.0 0.0 0.00 1.06 0.50 59 1012.8
20260506184416 62 325 0.0 0.0 0.00 1.06 0.50 55 1012.7
20260506183916 62 325 0.0 0.0 0.00 1.06 0.50 52 1012.5
20260506183336 63 266 0.0 0.0 0.00 1.06 0.50 56 1012.5
20260506182835 63 266 0.0 0.0 0.00 1.06 0.50 58 1012.5
20260506182357 63 266 0.0 0.0 0.00 1.06 0.50 55 1012.4
20260506181838 63 9 0.0 0.0 0.00 1.06 0.50 53 1012.4
20260506181357 63 241 0.0 0.0 0.00 1.06 0.50 53 1012.6
20260506180837 63 250 0.0 0.0 0.00 1.06 0.50 53 1012.6
20260506180340 63 32 0.0 0.0 0.00 1.06 0.50 51 1012.5
20260506175838 64 360 0.0 0.0 0.00 1.06 0.50 52 1012.5
20260506175340 64 5 0.0 0.0 0.00 1.06 0.50 53 1012.7
20260506174842 64 340 0.0 0.0 0.00 1.06 0.50 56 1012.8
20260506174348 64 344 0.0 1.0 0.00 1.06 0.50 58 1012.9
20260506173849 64 101 0.0 1.0 0.00 1.06 0.50 58 1012.9
20260506173413 64 205 0.0 1.0 0.00 1.06 0.50 56 1013.0
20260506172850 63 271 0.0 0.0 0.00 1.06 0.50 56 1012.9
20260506172352 63 5 0.0 0.0 0.00 1.06 0.50 58 1012.8
20260506171853 63 313 0.0 0.0 0.00 1.06 0.50 55 1013.0
20260506171349 62 273 0.0 0.0 0.00 1.06 0.50 60 1013.0
20260506170850 62 236 0.0 0.0 0.00 1.06 0.50 58 1012.9
20260506170351 62 306 0.0 0.0 0.00 1.06 0.50 56 1013.0
20260506165849 62 321 0.0 0.0 0.00 1.06 0.50 60 1013.0
20260506165351 61 288 0.0 0.0 0.00 1.06 0.50 61 1013.1
20260506164851 61 294 0.0 0.0 0.00 1.06 0.50 61 1013.2
20260506164351 61 108 0.0 0.0 0.00 1.06 0.50 60 1013.2
20260506163853 61 261 0.0 0.0 0.00 1.06 0.50 59 1013.1
20260506163355 61 101 0.0 0.0 0.00 1.06 0.50 58 1013.1
20260506162913 61 273 0.0 0.0 0.00 1.06 0.50 58 1013.1
20260506162414 61 97 0.0 0.0 0.00 1.06 0.50 59 1013.1
20260506161836 61 251 0.0 0.0 0.00 1.06 0.50 62 1013.1
20260506161416 60 106 0.0 0.0 0.00 1.06 0.50 62 1013.0
20260506160854 60 325 0.0 0.0 0.00 1.06 0.50 63 1013.0
20260506160415 60 268 0.0 0.0 0.00 1.06 0.50 66 1012.9
20260506155852 60 280 0.0 0.0 0.00 1.06 0.50 68 1013.0
20260506155415 59 77 0.0 0.0 0.00 1.06 0.50 66 1013.0
20260506154855 60 77 0.0 0.0 0.00 1.06 0.50 62 1013.0
20260506154356 59 326 0.0 0.0 0.00 1.06 0.50 65 1012.9
20260506153856 59 116 0.0 0.0 0.00 1.06 0.50 67 1013.0
20260506153337 59 9 0.0 0.0 0.00 1.06 0.50 68 1013.2
20260506152835 59 317 0.0 0.0 0.00 1.06 0.50 67 1013.2
20260506152354 59 30 0.0 0.0 0.00 1.06 0.50 68 1013.2
20260506151836 58 32 0.0 0.0 0.00 1.06 0.50 70 1013.1
20260506151339 58 308 0.0 0.0 0.00 1.06 0.50 69 1013.0
20260506150840 58 309 0.0 0.0 0.00 1.06 0.50 76 1012.7
20260506150340 57 308 0.0 0.0 0.00 1.06 0.50 71 1012.4
20260506145837 56 110 0.0 0.0 0.00 1.06 0.50 74 1012.4
20260506145341 56 315 0.0 0.0 0.00 1.06 0.50 78 1012.3
20260506144844 55 315 0.0 0.0 0.00 1.06 0.50 81 1012.2
20260506144344 54 351 0.0 0.0 0.00 1.06 0.50 81 1012.1
20260506143844 54 344 0.0 0.0 0.00 1.06 0.50 84 1012.1
20260506143346 53 344 0.0 0.0 0.00 1.06 0.50 86 1011.9
20260506142844 53 344 0.0 0.0 0.00 1.06 0.50 87 1011.9
20260506142341 52 344 0.0 0.0 0.00 1.06 0.50 87 1011.9
20260506141843 51 178 0.0 0.0 0.00 1.06 0.50 89 1012.1
20260506141345 51 340 0.0 0.0 0.00 1.06 0.50 91 1012.2
20260506140846 50 355 0.0 0.0 0.00 1.06 0.50 92 1012.0
20260506140347 50 355 0.0 0.0 0.00 1.06 0.50 92 1011.9
20260506135847 50 342 0.0 0.0 0.00 1.06 0.50 93 1011.9
20260506135409 49 225 0.0 0.0 0.00 1.06 0.50 93 1011.9
20260506134849 49 225 0.0 0.0 0.00 1.06 0.50 94 1011.8
20260506134353 49 200 0.0 0.0 0.00 1.06 0.50 94 1011.9
20260506133855 48 200 0.0 0.0 0.00 1.06 0.50 94 1012.1
20260506133356 48 200 0.0 0.0 0.00 1.06 0.50 94 1012.0
20260506132854 48 200 0.0 0.0 0.00 1.06 0.50 94 1011.9
20260506132338 48 200 0.0 0.0 0.00 1.06 0.50 95 1011.9
20260506131837 47 200 0.0 0.0 0.00 1.06 0.50 94 1011.6
20260506131340 47 200 0.0 0.0 0.00 1.06 0.50 95 1011.5
20260506130842 47 200 0.0 0.0 0.00 1.06 0.50 95 1011.7
20260506130403 47 200 0.0 0.0 0.00 1.06 0.50 95 1011.9
20260506125841 47 200 0.0 0.0 0.00 1.06 0.50 94 1011.6
20260506125343 47 202 0.0 0.0 0.00 1.06 0.50 95 1011.5
20260506124846 47 202 0.0 0.0 0.00 1.06 0.50 95 1011.3
20260506124348 47 202 0.0 0.0 0.00 1.06 0.50 95 1011.4
20260506123909 47 202 0.0 0.0 0.00 1.06 0.50 95 1011.2
20260506123350 46 202 0.0 0.0 0.00 1.06 0.50 95 1011.1
20260506122850 46 202 0.0 0.0 0.00 1.06 0.50 95 1011.0
20260506122408 46 202 0.0 0.0 0.00 1.06 0.50 95 1011.1
20260506121851 46 202 0.0 0.0 0.00 1.06 0.50 95 1011.0
20260506121351 45 202 0.0 0.0 0.00 1.06 0.50 95 1011.1
20260506120853 45 202 0.0 0.0 0.00 1.06 0.50 95 1010.9
20260506120354 45 202 0.0 0.0 0.00 1.06 0.50 95 1010.7
20260506115854 45 202 0.0 0.0 0.00 1.07 0.50 95 1010.8
20260506115336 45 5 0.0 0.0 0.00 1.07 0.50 95 1010.7
20260506114838 45 5 0.0 0.0 0.00 1.07 0.50 95 1010.6
20260506114400 45 5 0.0 0.0 0.00 1.07 0.50 95 1010.4
20260506113902 45 5 0.0 0.0 0.00 1.07 0.50 95 1010.1
20260506113359 44 5 0.0 0.0 0.00 1.07 0.50 95 1009.9
20260506112838 44 5 0.0 0.0 0.00 1.07 0.50 95 1009.7
20260506112358 44 5 0.0 0.0 0.00 1.07 0.50 95 1009.6
20260506111840 44 5 0.0 0.0 0.00 1.07 0.50 95 1009.7
20260506111341 44 5 0.0 0.0 0.00 1.07 0.50 95 1009.8
20260506110845 44 5 0.0 0.0 0.00 1.07 0.50 95 1009.8
20260506110346 45 5 0.0 0.0 0.00 1.07 0.50 95 1009.8
20260506105844 45 272 0.0 0.0 0.00 1.09 0.50 95 1010.0
20260506105347 45 272 0.0 0.0 0.00 1.09 0.50 95 1009.9
20260506104848 45 272 0.0 0.0 0.00 1.09 0.50 95 1009.6
20260506104349 45 272 0.0 0.0 0.00 1.09 0.50 95 1009.3
20260506103845 45 272 0.0 0.0 0.00 1.09 0.50 94 1009.5
20260506103346 45 272 0.0 0.0 0.00 1.09 0.50 94 1009.6
20260506102846 45 272 0.0 0.0 0.00 1.09 0.50 94 1010.0
20260506102348 45 272 0.0 0.0 0.00 1.09 0.50 94 1009.6
20260506101848 45 272 0.0 0.0 0.00 1.09 0.50 94 1008.7
20260506101352 45 272 0.0 0.0 0.00 1.09 0.50 94 1008.8
20260506100853 45 272 0.0 0.0 0.00 1.09 0.50 94 1008.9
20260506100354 45 272 0.0 0.0 0.00 1.09 0.50 94 1008.5
20260506095852 45 217 0.0 0.0 0.00 1.15 0.50 94 1008.8
20260506095354 45 217 0.0 0.0 0.00 1.15 0.50 94 1009.0
20260506094835 45 217 0.0 0.0 0.00 1.15 0.50 94 1008.9
20260506094338 45 217 0.0 0.0 0.00 1.15 0.50 94 1008.9
20260506093840 45 217 0.0 0.0 0.00 1.15 0.50 94 1008.7
20260506093342 45 217 0.0 0.0 0.00 1.15 0.50 94 1008.6
20260506092838 45 217 0.0 0.0 0.00 1.15 0.50 94 1008.5
20260506092358 45 179 0.0 0.0 0.00 1.15 0.50 94 1008.4
20260506091841 44 12 0.0 0.0 0.01 1.15 0.50 94 1008.2
20260506091403 44 12 0.0 0.0 0.01 1.15 0.50 94 1008.0
20260506090846 44 12 0.0 0.0 0.01 1.15 0.50 94 1008.2
20260506090350 44 85 0.0 0.0 0.01 1.15 0.50 94 1008.0
20260506085849 44 85 0.0 0.0 0.01 1.15 0.50 94 1008.0
20260506085351 44 85 0.0 1.0 0.02 1.15 0.50 94 1008.1
20260506084854 44 85 0.0 1.0 0.02 1.15 0.50 94 1008.2
20260506084353 44 346 0.0 0.0 0.02 1.15 0.50 94 1008.4
20260506083852 45 346 0.0 0.0 0.03 1.15 0.50 94 1008.1
20260506083350 45 346 0.0 0.0 0.04 1.15 0.50 94 1008.2
20260506082849 45 346 0.0 0.0 0.04 1.15 0.50 94 1008.4
20260506082409 45 346 0.0 0.0 0.05 1.15 0.50 94 1008.2
20260506081850 45 346 0.0 0.0 0.05 1.14 0.49 94 1008.1
20260506081350 45 346 0.0 0.0 0.05 1.14 0.49 94 1008.1
20260506080853 45 346 0.0 0.0 0.07 1.14 0.49 94 1008.0
20260506080354 46 346 0.0 0.0 0.07 1.14 0.49 94 1008.0
20260506073339 48 5 0.0 0.0 0.06 1.11 0.46 94 1008.1
20260506072836 48 12 0.0 0.0 0.07 1.11 0.46 94 1008.1
20260506072339 48 326 0.0 0.0 0.07 1.10 0.45 94 1008.0
20260506071841 48 326 0.0 0.0 0.06 1.09 0.44 94 1007.8
20260506071402 48 326 0.0 0.0 0.06 1.08 0.43 94 1007.8
20260506070842 48 326 0.0 0.0 0.06 1.07 0.42 94 1007.7
20260506070344 48 326 0.0 0.0 0.08 1.07 0.42 94 1007.7
20260506062348 48 342 0.0 0.0 0.15 1.03 0.38 94 1007.3
20260506061851 48 342 0.0 0.0 0.16 1.03 0.38 94 1007.2
20260506061353 48 342 0.0 0.0 0.17 1.02 0.37 94 1007.1
20260506060854 48 161 0.0 0.0 0.18 1.01 0.36 94 1007.0